{"data":{"norad_id":42811,"epoch":"2026-09-19T22:54:54.749376Z","epoch_age_seconds":62526,"freshness":"FRESH","line1":"1 42811U 17039J   26262.95480034 -.00000141  00000+0 -57321-4 0  9996","line2":"2 42811  86.4017 345.5516 0002009  92.9055 267.2371 14.34217037483560","mean_motion":14.34217037,"eccentricity":0.0002009,"inclination_deg":86.4017,"raan_deg":345.5516,"arg_perigee_deg":92.9055,"mean_anomaly_deg":267.2371,"bstar":-5.7321e-5,"rev_number":48356,"period_min":100.40321393839,"perigee_km":776.2319244244,"apogee_km":779.10712748653,"semimajor_km":7155.8065259555,"source":"CELESTRAK","updated_at":"2026-09-20T09:00:36.323672Z"}}